FW7875 Weather Reports


time (UTC)temp
C
wind
direction
speed
KPH
gust
KPH
rain 1hr
cm
rain 24hr
cm
rain mn
cm
humidity
%
barometer
mb
20260906232520 28 225 16.1 32.2 0.00 0.00 0.00 27 1020.5
20260906232020 27 235 19.3 32.2 0.00 0.00 0.00 28 1020.5
20260906231534 28 224 22.5 32.2 0.00 0.00 0.00 28 1020.4
20260906231020 28 255 19.3 32.2 0.00 0.00 0.00 27 1020.6
20260906230521 27 229 24.1 30.6 0.00 0.00 0.00 28 1020.6
20260906230043 27 214 20.9 30.6 0.00 0.00 0.00 28 1020.6
20260906225516 28 219 14.5 27.4 0.00 0.00 0.00 29 1020.6
20260906225024 27 274 19.3 35.4 0.00 0.00 0.00 30 1020.6
20260906224536 27 241 20.9 35.4 0.00 0.00 0.00 31 1020.8
20260906224020 27 235 22.5 30.6 0.00 0.00 0.00 30 1020.6
20260906223521 27 227 20.9 35.4 0.00 0.00 0.00 29 1020.8
20260906223044 27 205 24.1 35.4 0.00 0.00 0.00 30 1020.8
20260906222518 27 220 17.7 35.4 0.00 0.00 0.00 30 1020.7
20260906222020 27 218 20.9 35.4 0.00 0.00 0.00 30 1020.8
20260906221542 27 255 17.7 29.0 0.00 0.00 0.00 30 1020.6
20260906221020 27 241 20.9 27.4 0.00 0.00 0.00 30 1020.8
20260906220520 27 251 11.3 19.3 0.00 0.00 0.00 30 1020.8
20260906220037 27 266 1.6 17.7 0.00 0.00 0.00 31 1021.0
20260906215520 26 231 8.0 20.9 0.00 0.00 0.00 31 1021.0
20260906215018 27 231 12.9 20.9 0.00 0.00 0.00 31 1021.0
20260906214539 27 230 11.3 24.1 0.00 0.00 0.00 31 1021.1
20260906214025 27 243 14.5 24.1 0.00 0.00 0.00 31 1021.2
20260906213520 27 254 11.3 19.3 0.00 0.00 0.00 30 1021.3
20260906213038 27 255 4.8 24.1 0.00 0.00 0.00 30 1021.2
20260906212517 27 260 4.8 24.1 0.00 0.00 0.00 30 1021.3
20260906212020 27 271 6.4 17.7 0.00 0.00 0.00 30 1021.3
20260906211542 27 271 6.4 12.9 0.00 0.00 0.00 30 1021.2
20260906211024 27 324 1.6 20.9 0.00 0.00 0.00 30 1021.2
20260906210520 27 206 11.3 20.9 0.00 0.00 0.00 30 1021.4
20260906210038 27 223 9.7 32.2 0.00 0.00 0.00 30 1021.3
20260906205520 27 269 11.3 32.2 0.00 0.00 0.00 30 1021.4
20260906205018 27 296 8.0 32.2 0.00 0.00 0.00 31 1021.5
20260906204541 27 299 8.0 22.5 0.00 0.00 0.00 29 1021.5
20260906204019 27 293 17.7 24.1 0.00 0.00 0.00 30 1021.4
20260906203520 27 278 16.1 24.1 0.00 0.00 0.00 29 1021.5
20260906203046 27 295 8.0 19.3 0.00 0.00 0.00 29 1021.6
20260906202520 26 302 6.4 24.1 0.00 0.00 0.00 30 1021.6
20260906202018 26 264 12.9 24.1 0.00 0.00 0.00 30 1021.8
20260906201536 26 263 17.7 24.1 0.00 0.00 0.00 30 1021.8
20260906201020 26 271 9.7 20.9 0.00 0.00 0.00 30 1021.8
20260906200520 26 254 11.3 24.1 0.00 0.00 0.00 29 1021.7
20260906200046 26 279 16.1 24.1 0.00 0.00 0.00 29 1021.9
20260906195520 26 303 9.7 24.1 0.00 0.00 0.00 28 1021.9
20260906195017 27 220 11.3 24.1 0.00 0.00 0.00 27 1022.0
20260906194536 27 241 12.9 24.1 0.00 0.00 0.00 28 1022.0
20260906194024 26 229 9.7 24.1 0.00 0.00 0.00 27 1022.1
20260906193518 26 288 16.1 24.1 0.00 0.00 0.00 27 1022.2
20260906193059 26 301 11.3 22.5 0.00 0.00 0.00 28 1022.3
20260906192520 26 293 12.9 22.5 0.00 0.00 0.00 27 1022.5
20260906192020 26 272 4.8 19.3 0.00 0.00 0.00 27 1022.6
20260906191541 26 293 9.7 19.3 0.00 0.00 0.00 27 1022.8
20260906191018 26 283 9.7 17.7 0.00 0.00 0.00 27 1022.8
20260906190520 26 242 9.7 19.3 0.00 0.00 0.00 29 1023.0
20260906190040 26 284 11.3 19.3 0.00 0.00 0.00 27 1022.9
20260906185519 26 262 9.7 19.3 0.00 0.00 0.00 27 1023.1
20260906185018 25 345 12.9 19.3 0.00 0.00 0.00 27 1023.1
20260906184545 26 277 12.9 19.3 0.00 0.00 0.00 26 1023.2
20260906184020 25 272 11.3 24.1 0.00 0.00 0.00 27 1023.2
20260906183518 26 240 14.5 24.1 0.00 0.00 0.00 27 1023.2
20260906183039 26 257 14.5 30.6 0.00 0.00 0.00 26 1023.4
20260906182521 26 276 11.3 30.6 0.00 0.00 0.00 24 1023.3
20260906182020 27 252 17.7 25.7 0.00 0.00 0.00 25 1023.2
20260906181557 26 283 12.9 22.5 0.00 0.00 0.00 26 1023.4
20260906181017 26 283 9.7 17.7 0.00 0.00 0.00 25 1023.5
20260906180518 25 309 6.4 27.4 0.00 0.00 0.00 24 1023.5
20260906180040 25 0 9.7 27.4 0.00 0.00 0.00 24 1023.6
20260906175520 25 296 8.0 17.7 0.00 0.00 0.00 24 1023.6
20260906175024 25 302 8.0 17.7 0.00 0.00 0.00 24 1023.6
20260906174546 26 333 6.4 17.7 0.00 0.00 0.00 24 1023.7
20260906174019 25 350 3.2 20.9 0.00 0.00 0.00 23 1023.7
20260906173524 25 281 8.0 20.9 0.00 0.00 0.00 24 1023.7
20260906173038 25 304 6.4 17.7 0.00 0.00 0.00 23 1023.8
20260906172517 25 338 12.9 17.7 0.00 0.00 0.00 24 1023.8
20260906172024 25 306 11.3 20.9 0.00 0.00 0.00 23 1023.9
20260906171535 25 310 6.4 20.9 0.00 0.00 0.00 23 1024.1
20260906171020 25 304 4.8 17.7 0.00 0.00 0.00 24 1024.2
20260906170521 25 287 11.3 17.7 0.00 0.00 0.00 24 1024.1
20260906170045 25 288 6.4 16.1 0.00 0.00 0.00 24 1024.1
20260906165516 25 272 8.0 14.5 0.00 0.00 0.00 24 1024.2
20260906165020 25 291 4.8 14.5 0.00 0.00 0.00 25 1024.2
20260906164543 25 263 8.0 14.5 0.00 0.00 0.00 24 1024.3
20260906164017 25 304 8.0 14.5 0.00 0.00 0.00 25 1024.4
20260906163517 25 239 9.7 14.5 0.00 0.00 0.00 25 1024.4
20260906163036 25 270 9.7 14.5 0.00 0.00 0.00 25 1024.2
20260906162523 25 325 4.8 12.9 0.00 0.00 0.00 26 1024.2
20260906162018 25 259 8.0 12.9 0.00 0.00 0.00 25 1024.2
20260906161536 25 272 1.6 11.3 0.00 0.00 0.00 26 1024.1
20260906161017 25 268 4.8 11.3 0.00 0.00 0.00 26 1024.2
20260906160517 25 241 3.2 9.7 0.00 0.00 0.00 26 1024.2
20260906160038 25 0 0.0 8.0 0.00 0.00 0.00 27 1024.1
20260906155521 25 214 3.2 8.0 0.00 0.00 0.00 27 1024.3
20260906155021 24 158 1.6 6.4 0.00 0.00 0.00 28 1024.2
20260906154542 23 0 0.0 9.7 0.00 0.00 0.00 29 1024.2
20260906154023 23 71 3.2 9.7 0.00 0.00 0.00 30 1024.2
20260906153517 22 101 4.8 9.7 0.00 0.00 0.00 32 1024.0
20260906153041 22 108 4.8 12.9 0.00 0.00 0.00 32 1024.1
20260906152526 22 116 8.0 12.9 0.00 0.00 0.00 33 1024.2
20260906152022 21 108 9.7 12.9 0.00 0.00 0.00 34 1024.2
20260906151540 21 134 9.7 14.5 0.00 0.00 0.00 35 1024.2
20260906151021 21 103 9.7 16.1 0.00 0.00 0.00 35 1024.2
20260906150518 21 93 11.3 16.1 0.00 0.00 0.00 34 1024.3
20260906150043 20 108 12.9 17.7 0.00 0.00 0.00 35 1024.1
20260906145523 20 93 12.9 17.7 0.00 0.00 0.00 35 1024.2
20260906145022 20 105 12.9 16.1 0.00 0.00 0.00 36 1024.3
20260906144547 19 91 12.9 16.1 0.00 0.00 0.00 37 1024.2
20260906144018 19 107 12.9 16.1 0.00 0.00 0.00 37 1024.3
20260906143520 19 110 9.7 17.7 0.00 0.00 0.00 38 1024.3
20260906143038 18 96 11.3 17.7 0.00 0.00 0.00 38 1024.3
20260906142520 18 100 12.9 17.7 0.00 0.00 0.00 37 1024.3
20260906142021 18 113 9.7 19.3 0.00 0.00 0.00 39 1024.3
20260906141538 17 104 14.5 19.3 0.00 0.00 0.00 39 1024.2
20260906141019 17 103 14.5 17.7 0.00 0.00 0.00 39 1024.3
20260906140519 17 113 14.5 20.9 0.00 0.00 0.00 40 1024.3
20260906140038 16 111 14.5 24.1 0.00 0.00 0.00 40 1024.3
20260906135520 16 108 16.1 24.1 0.00 0.00 0.00 42 1024.3
20260906135018 16 124 16.1 22.5 0.00 0.00 0.00 42 1024.4
20260906134536 15 129 16.1 22.5 0.00 0.00 0.00 42 1024.4
20260906134020 15 116 16.1 20.9 0.00 0.00 0.00 44 1024.4
20260906133518 14 104 12.9 19.3 0.00 0.00 0.00 44 1024.4
20260906133036 14 110 12.9 19.3 0.00 0.00 0.00 45 1024.2
20260906132520 14 110 14.5 19.3 0.00 0.00 0.00 45 1024.3
20260906132018 13 110 11.3 20.9 0.00 0.00 0.00 45 1024.2
20260906131538 13 108 12.9 20.9 0.00 0.00 0.00 46 1024.2
20260906131022 13 113 12.9 19.3 0.00 0.00 0.00 46 1024.2
20260906130522 13 110 12.9 19.3 0.00 0.00 0.00 47 1024.1
20260906130042 13 113 12.9 19.3 0.00 0.00 0.00 47 1024.1
20260906125520 13 122 14.5 20.9 0.00 0.00 0.00 47 1023.9
20260906125020 13 117 12.9 24.1 0.00 0.00 0.00 47 1023.9
20260906124542 13 120 17.7 24.1 0.00 0.00 0.00 47 1023.8
20260906124018 13 107 16.1 22.5 0.00 0.00 0.00 47 1023.9
20260906123517 13 126 14.5 22.5 0.00 0.00 0.00 46 1023.8
20260906123039 13 106 16.1 22.5 0.00 0.00 0.00 46 1023.8
20260906122520 13 89 17.7 22.5 0.00 0.00 0.00 46 1023.7
20260906122020 13 110 14.5 19.3 0.00 0.00 0.00 46 1023.6
20260906121536 13 104 14.5 19.3 0.00 0.00 0.00 46 1023.6
20260906121021 13 120 12.9 20.9 0.00 0.00 0.00 46 1023.6
20260906120518 13 98 12.9 20.9 0.00 0.00 0.00 47 1023.6
20260906120042 13 104 14.5 20.9 0.00 0.00 0.00 47 1023.6
20260906115518 13 113 12.9 22.5 0.00 0.00 0.00 46 1023.6
20260906115017 13 118 12.9 24.1 0.00 0.00 0.00 45 1023.5
20260906114548 13 113 17.7 24.1 0.00 0.00 0.00 45 1023.5
20260906114018 13 108 16.1 22.5 0.00 0.00 0.00 46 1023.6
20260906113518 13 131 16.1 22.5 0.00 0.00 0.00 46 1023.6
20260906113038 13 111 14.5 22.5 0.00 0.00 0.00 46 1023.6
20260906112520 13 131 12.9 20.9 0.00 0.00 0.00 46 1023.6
20260906112025 13 110 14.5 20.9 0.00 0.00 0.00 46 1023.5
20260906111540 13 101 11.3 17.7 0.00 0.00 0.00 46 1023.5
20260906111020 13 101 14.5 17.7 0.00 0.00 0.00 47 1023.4
20260906110520 13 111 12.9 17.7 0.00 0.00 0.00 49 1023.7
20260906110038 12 129 12.9 16.1 0.00 0.00 0.00 49 1023.5
20260906105520 12 116 9.7 16.1 0.00 0.00 0.00 50 1023.6
20260906105020 13 117 9.7 16.1 0.00 0.00 0.00 49 1023.6
20260906104547 12 114 11.3 16.1 0.00 0.00 0.00 50 1023.5
20260906104020 12 115 11.3 16.1 0.00 0.00 0.00 50 1023.4
20260906103518 12 121 11.3 16.1 0.00 0.00 0.00 51 1023.6
20260906103039 12 108 12.9 16.1 0.00 0.00 0.00 52 1023.5
20260906102520 11 120 9.7 16.1 0.00 0.00 0.00 52 1023.5
20260906102020 12 115 11.3 16.1 0.00 0.00 0.00 52 1023.6
20260906101535 12 119 8.0 12.9 0.00 0.00 0.00 52 1023.6
20260906101020 12 113 9.7 12.9 0.00 0.00 0.00 51 1023.7
20260906100520 12 118 9.7 12.9 0.00 0.00 0.00 51 1023.7
20260906100037 12 108 9.7 14.5 0.00 0.00 0.00 51 1023.6
20260906095524 12 129 9.7 14.5 0.00 0.00 0.00 50 1023.6
20260906095019 12 134 12.9 14.5 0.00 0.00 0.00 50 1023.7
20260906094557 12 124 9.7 14.5 0.00 0.00 0.00 50 1023.7
20260906094021 12 108 9.7 14.5 0.00 0.00 0.00 50 1023.8
20260906093520 13 122 11.3 14.5 0.00 0.00 0.00 50 1023.8
20260906093053 12 117 9.7 16.1 0.00 0.00 0.00 50 1023.8
20260906092520 13 119 11.3 16.1 0.00 0.00 0.00 50 1023.7
20260906092020 12 121 11.3 14.5 0.00 0.00 0.00 51 1023.8
20260906091537 12 117 9.7 11.3 0.00 0.00 0.00 52 1023.8
20260906091017 12 115 8.0 11.3 0.00 0.00 0.00 53 1023.8
20260906090518 12 129 8.0 12.9 0.00 0.00 0.00 54 1023.8
20260906090039 12 116 9.7 12.9 0.00 0.00 0.00 53 1023.7
20260906085520 12 116 11.3 12.9 0.00 0.00 0.00 53 1023.8
20260906085020 12 114 8.0 11.3 0.00 0.00 0.00 53 1023.8
20260906084538 12 117 8.0 14.5 0.00 0.00 0.00 53 1024.0
20260906084021 12 141 9.7 14.5 0.00 0.00 0.00 53 1023.9
20260906083518 12 117 9.7 12.9 0.00 0.00 0.00 53 1024.0
20260906083045 12 113 9.7 12.9 0.00 0.00 0.00 54 1024.0
20260906082517 12 133 9.7 12.9 0.00 0.00 0.00 53 1024.0
20260906082024 12 111 9.7 12.9 0.00 0.00 0.00 53 1023.9
20260906081538 12 112 8.0 11.3 0.00 0.00 0.00 55 1024.0
20260906081020 11 131 6.4 9.7 0.00 0.00 0.00 55 1024.1
20260906080520 11 132 8.0 11.3 0.00 0.00 0.00 55 1024.0
20260906080041 11 126 8.0 11.3 0.00 0.00 0.00 54 1024.0
20260906075517 12 127 8.0 11.3 0.00 0.00 0.00 52 1024.0
20260906075018 12 126 8.0 16.1 0.00 0.00 0.00 51 1023.9
20260906074539 13 106 9.7 16.1 0.00 0.00 0.00 49 1024.0
20260906074016 14 112 12.9 19.3 0.00 0.00 0.00 47 1023.9
20260906073518 14 110 12.9 19.3 0.00 0.00 0.00 46 1023.9
20260906073037 14 118 12.9 17.7 0.00 0.00 0.00 46 1023.9
20260906072518 15 105 11.3 14.5 0.00 0.00 0.00 45 1023.8
20260906072018 15 101 11.3 14.5 0.00 0.00 0.00 45 1023.9
20260906071539 15 94 9.7 14.5 0.00 0.00 0.00 45 1023.9
20260906071018 14 102 11.3 14.5 0.00 0.00 0.00 45 1024.1
20260906070521 13 107 9.7 12.9 0.00 0.00 0.00 46 1024.2
20260906070037 14 89 9.7 14.5 0.00 0.00 0.00 46 1024.1
20260906065517 14 81 9.7 14.5 0.00 0.00 0.00 45 1024.2
20260906065016 14 76 9.7 12.9 0.00 0.00 0.00 45 1024.1
20260906064537 14 64 8.0 9.7 0.00 0.00 0.00 45 1024.1
20260906064019 14 75 8.0 11.3 0.00 0.00 0.00 45 1024.2
20260906063519 14 75 8.0 11.3 0.00 0.00 0.00 46 1024.2
20260906063039 14 86 8.0 9.7 0.00 0.00 0.00 46 1024.2
20260906062518 14 82 4.8 14.5 0.00 0.00 0.00 46 1024.2
20260906062020 14 101 8.0 14.5 0.00 0.00 0.00 46 1024.1
20260906061538 14 113 9.7 14.5 0.00 0.00 0.00 45 1023.9
20260906061017 14 99 11.3 14.5 0.00 0.00 0.00 45 1023.9
20260906060523 15 99 9.7 12.9 0.00 0.00 0.00 44 1023.9
20260906060037 14 106 6.4 9.7 0.00 0.00 0.00 45 1024.0
20260906055520 13 108 4.8 9.7 0.00 0.00 0.00 46 1023.9
20260906055017 13 105 6.4 9.7 0.00 0.00 0.00 45 1023.9
20260906054541 13 102 6.4 12.9 0.00 0.00 0.00 46 1023.8
20260906054023 13 103 8.0 12.9 0.00 0.00 0.00 46 1023.9
20260906053519 13 110 6.4 11.3 0.00 0.00 0.00 45 1023.9
20260906053040 14 96 8.0 11.3 0.00 0.00 0.00 45 1024.0
20260906052520 13 83 6.4 9.7 0.00 0.00 0.00 45 1024.0
20260906052019 14 83 6.4 11.3 0.00 0.00 0.00 44 1024.0
20260906051548 15 89 4.8 11.3 0.00 0.00 0.00 43 1024.0
20260906051020 14 104 6.4 11.3 0.00 0.00 0.00 43 1024.3
20260906050522 15 91 6.4 12.9 0.00 0.00 0.00 41 1024.1
20260906050036 15 91 8.0 12.9 0.00 0.00 0.00 40 1024.1
20260906045521 17 98 9.7 12.9 0.00 0.00 0.00 37 1024.1
20260906045018 17 134 9.7 12.9 0.00 0.00 0.00 36 1024.2
20260906044538 17 136 9.7 14.5 0.00 0.00 0.00 36 1024.0
20260906044022 17 127 11.3 16.1 0.00 0.00 0.00 36 1024.2
20260906043518 17 126 11.3 16.1 0.00 0.00 0.00 35 1024.2
20260906043036 17 121 9.7 14.5 0.00 0.00 0.00 35 1024.3
20260906042520 17 126 8.0 11.3 0.00 0.00 0.00 35 1024.1
20260906042020 17 122 8.0 11.3 0.00 0.00 0.00 34 1024.1
20260906041537 18 127 6.4 11.3 0.00 0.00 0.00 33 1024.2
20260906041018 18 135 6.4 11.3 0.00 0.00 0.00 33 1024.2
20260906040518 18 121 6.4 11.3 0.00 0.00 0.00 33 1024.1
20260906040041 18 129 6.4 11.3 0.00 0.00 0.00 33 1024.1
20260906035519 18 133 6.4 11.3 0.00 0.00 0.00 33 1024.0
20260906035023 18 136 6.4 11.3 0.00 0.00 0.00 32 1023.8
20260906034538 18 135 8.0 12.9 0.00 0.00 0.00 32 1023.9
20260906034020 18 146 6.4 12.9 0.00 0.00 0.00 32 1023.8
20260906033520 18 150 6.4 9.7 0.00 0.00 0.00 31 1023.8
20260906033045 18 157 4.8 8.0 0.00 0.00 0.00 32 1023.6
20260906032518 18 136 3.2 6.4 0.00 0.00 0.00 32 1023.7
20260906032018 18 135 3.2 4.8 0.00 0.00 0.00 33 1023.7
20260906031539 18 111 3.2 9.7 0.00 0.00 0.00 32 1023.6
20260906031018 19 139 3.2 9.7 0.00 0.00 0.00 31 1023.6
20260906030518 19 117 6.4 9.7 0.00 0.00 0.00 31 1023.4
20260906030040 19 131 3.2 9.7 0.00 0.00 0.00 31 1023.5
20260906025516 20 134 1.6 12.9 0.00 0.00 0.00 29 1023.4
20260906025022 20 207 3.2 12.9 0.00 0.00 0.00 28 1023.3
20260906024548 21 181 4.8 9.7 0.00 0.00 0.00 28 1023.3
20260906024018 21 212 6.4 9.7 0.00 0.00 0.00 28 1023.2
20260906023520 21 232 4.8 9.7 0.00 0.00 0.00 28 1023.1
20260906023038 21 228 4.8 9.7 0.00 0.00 0.00 28 1022.9
20260906022517 21 224 6.4 9.7 0.00 0.00 0.00 28 1023.0
20260906022020 21 232 6.4 9.7 0.00 0.00 0.00 28 1022.9
20260906021538 21 247 6.4 9.7 0.00 0.00 0.00 28 1022.8
20260906021020 21 250 6.4 12.9 0.00 0.00 0.00 28 1022.9
20260906020520 21 253 6.4 12.9 0.00 0.00 0.00 27 1022.8
20260906020039 21 260 6.4 12.9 0.00 0.00 0.00 28 1022.8
20260906015520 21 252 6.4 12.9 0.00 0.00 0.00 27 1022.6
20260906015019 22 223 6.4 12.9 0.00 0.00 0.00 27 1022.5
20260906014611 22 253 4.8 12.9 0.00 0.00 0.00 27 1022.6
20260906014017 22 256 6.4 17.7 0.00 0.00 0.00 26 1022.5
20260906013517 23 277 9.7 17.7 0.00 0.00 0.00 26 1022.6
20260906013047 23 274 9.7 19.3 0.00 0.00 0.00 25 1022.5
20260906012522 24 268 11.3 19.3 0.00 0.00 0.00 25 1022.5
20260906012020 24 281 12.9 19.3 0.00 0.00 0.00 25 1022.5
20260906011540 24 274 12.9 19.3 0.00 0.00 0.00 25 1022.4
20260906011018 25 259 11.3 20.9 0.00 0.00 0.00 25 1022.4
20260906010518 25 262 12.9 20.9 0.00 0.00 0.00 24 1022.5
20260906010046 25 243 11.3 22.5 0.00 0.00 0.00 25 1022.3
20260906005517 25 284 11.3 22.5 0.00 0.00 0.00 25 1022.5
20260906005023 25 262 11.3 22.5 0.00 0.00 0.00 25 1022.5
20260906004538 25 258 14.5 22.5 0.00 0.00 0.00 25 1022.4
20260906004024 26 281 12.9 20.9 0.00 0.00 0.00 24 1022.4
20260906003516 26 261 14.5 19.3 0.00 0.00 0.00 24 1022.4
20260906003037 26 286 11.3 19.3 0.00 0.00 0.00 25 1022.4
20260906002519 26 280 12.9 20.9 0.00 0.00 0.00 25 1022.3
20260906002020 26 288 12.9 20.9 0.00 0.00 0.00 24 1022.3
20260906001541 26 261 16.1 20.9 0.00 0.00 0.00 24 1022.2
20260906001017 26 252 12.9 20.9 0.00 0.00 0.00 24 1022.1
20260906000517 26 288 11.3 24.1 0.00 0.00 0.00 23 1022.3
20260906000042 26 262 14.5 24.1 0.00 0.00 0.00 22 1022.3
20260905235520 26 258 19.3 24.1 0.00 0.00 0.00 23 1022.2
20260905235017 27 260 14.5 24.1 0.00 0.00 0.00 23 1022.2
20260905234538 27 276 14.5 25.7 0.00 0.00 0.00 24 1022.3
20260905234018 27 283 17.7 29.0 0.00 0.00 0.00 24 1022.3
20260905233523 27 288 14.5 29.0 0.00 0.00 0.00 24 1022.2
20260905233035 26 263 20.9 30.6 0.00 0.00 0.00 24 1022.1